Regional Weather Roundup
Issued by NWS

Home | Current Version | Previous Version | Graphics & Text | Print | Product List | Glossary Off
Versions: 1 2 3 4 5 6 7 8 9 10 11 12 13 14 15 16 17 18 19 20 21 22 23 24 25 26 27 28 29 30 31 32 33 34 35 36 37 38 39 40 41 42 43 44 45 46 47 48 49 50

000
ASUS43 KLSX 260407
RWRMO

WEATHER SUMMARY FOR MISSOURI
NATIONAL WEATHER SERVICE SPRINGFIELD MO
1100 PM CDT SUN SEP 25 2016

NOTE: "FAIR" INDICATES FEW OR NO CLOUDS BELOW 12,000 FEET WITH NO
       SIGNIFICANT WEATHER AND/OR OBSTRUCTIONS TO VISIBILITY.
       CURRENT SKY AND/OR WEATHER CONDITIONS ARE NOT AVAILABLE FOR
       CHILLICOTHE AND FARMINGTON.

MOZ001>031-035>038-043-044-053-054-260500-
...NORTHERN AND WESTERN MISSOURI...

CITY           SKY/WX    TMP DP  RH WIND       PRES   REMARKS
KANSAS CTY INT CLOUDY    60  55  83 W5        30.20R
KANSAS C DTWN  CLOUDY    64  56  75 CALM      30.19S
LEE`S SUMMIT   CLOUDY    62  57  83 W3        30.20S
ST JOSEPH      PTCLDY    59  54  83 N3        30.20R
CHILLICOTHE      N/A     61  56  83 CALM      30.19S
KIRKSVILLE     CLOUDY    61  52  72 NW5       30.16S

$$
MOZ066>068-077>081-088>096-101>105-260500-
...SOUTHWEST MISSOURI...

CITY           SKY/WX    TMP DP  RH WIND       PRES   REMARKS
SPRINGFIELD    CLOUDY    61  56  83 N12       30.17S
JOPLIN         CLOUDY    61  59  93 N3          N/A
BRANSON        CLOUDY    66  63  88 NW12G18   30.17R

$$
MOZ032>034-039>042-045>050-055>058-069>072-260500-
...CENTRAL MISSOURI...

CITY           SKY/WX    TMP DP  RH WIND       PRES   REMARKS
COLUMBIA       LGT RAIN  62  59  90 NW8       30.17R
JEFFERSON CITY LGT RAIN  62  57  83 NW8       30.16R
ROLLA          CLOUDY    62  57  83 NW9       30.15R
SEDALIA        LGT RAIN  63  58  83 NW3       30.20R
WHITEMAN AFB   DRIZZLE   62  62  98 NW5       30.18S
OSAGE BEACH    LGT RAIN  61  58  90 N6        30.18R

$$
MOZ051-052-059>065-260500-
...EAST CENTRAL MISSOURI...

CITY           SKY/WX    TMP DP  RH WIND       PRES   REMARKS
ST LOUIS INTL  LGT RAIN  73  65  75 NW17G24   30.06R
SPIRIT OF STL  CLOUDY    69  62  78 NW15G25   30.06S
ST CHARLES     LGT RAIN  69  60  73 NW15      30.08R

$$
MOZ072>076-082>087-097>100-106>115-260500-
...SOUTH CENTRAL AND SOUTHEAST MISSOURI...

CITY           SKY/WX    TMP DP  RH WIND       PRES   REMARKS
CAPE GIRARDEAU CLOUDY    73  71  93 CALM      30.01S
FARMINGTON     MOCLDY    73  67  81 NW9       30.08R
WEST PLAINS    CLOUDY    72  66  81 N7        30.13R

$$



USA.gov is the U.S. government's official web portal to all federal, state and local government web resources and services.